Location: Carrières
(48.9495°N, 2.0407°E)
Time: 06:05:49
(UTC+00:00)

Vanguard 1 Rocket - Pass Details

Date: 20 April 2024
Orbit: 650 x 4220 km, 34.3° (Epoch: 27 May)

Event Time Altitude Azimuth Distance (km) Brightness Sun altitude
Rises 00:53:48 0° 261° (W) 4,997 10.9 -27.8°
Enters shadow 00:53:56 - 260° (W) 4,978 10.9 -27.8°
Exits shadow 01:24:14 - 162° (SSE) 7,987 11.8 -26.0°
Sets 01:24:16 0° 162° (SSE) 7,994 11.8 -26.0°
